Starlink 32782

operational
NORAD ID: 62821 Int'l Des: 2025-018 Owner: SPXS Country: US Constellation: starlink
LEOCIRCULAR

Starlink 32782について

説明を読み込み中...

リアルタイム位置

3D地球を読み込み中...

次回通過

高度履歴

Altitude vs Time

uPlot chart will show altitude changes over time

軌道要素

1 62821U 25018R 25351.21941933 .00023695 00000-0 80932-3 0 9993
2 62821 53.1617 332.5334 0001252 75.3779 284.7360 15.30210811 50552
Epoch: Dec 17, 2025 • Age: 27 hours

現在のステータス

高度 477.4 km
速度 7.63 km/s
衛星直下点 -8.67°S, 115.68°E
打ち上げ日 Jan 24, 2025
運用期間 0.8 years
タイプ internet

技術仕様

分類 Payload
質量 730.00 kg
乾燥質量 700.00 kg
総質量 730.00 kg
長さ 0.30 m
直径 4.10 m
スパン 29.00 m
形状 Box + pan
製造者 SPXS
バスタイプ Starlink V2M
フェーズステータス In Orbit
所有者/国 SPXS/US

大規模コンステレーション

Loading constellations...